Weather History for VIDP - March, 2014

Change the Weather History Date:

Saturday, March 22, 2014

  Actual Average Record
Temperature  
Mean Temperature 76 °F -  
Max Temperature 87 °F 93 °F 104 °F (2004)
Min Temperature 64 °F 69 °F 51 °F (1999)
Cooling Degree Days 10    
Growing Degree Days 26 (Base 50)    
Moisture  
Dew Point 57 °F    
Average Humidity 54    
Maximum Humidity 78    
Minimum Humidity 31    
Precipitation  
Precipitation 0.00 in - - ()
Sea Level Pressure  
Sea Level Pressure 29.75 in    
Wind  
Wind Speed 5 mph ()    
Max Wind Speed 9 mph    
Max Gust Speed -    
Visibility 2.0 miles    
Events      
Averages and records for this station are not official NWS values.
T = Trace of Precipitation, MM = Missing Value Source: Averaged Metar Reports

Daily Weather History Graph

Daily Weather History Graph

Search for Another Location

Airport or City:

Trip Planner

Search our weather history database for the weather conditions in past years. The results will help you decide how hot, cold, wet, or windy it might be!

Date:

Astronomy

Mar. 22, 2014 Rise Set
Actual Time 6:23 AM IST 6:33 PM IST
Civil Twilight 6:00 AM IST 6:57 PM IST
Nautical Twilight 5:32 AM IST 7:24 PM IST
Astronomical Twilight 5:04 AM IST 7:52 PM IST
Moon 12:01 AM IST (3/23) 10:05 AM IST (3/22)
Length of Visible Light 12h 57m
Length of Day
12h 10m
Waning Gibbous, 70% of the Moon is Illuminated
Mar 22
Waning Gibbous
Mar 24
Last Quarter
Mar 31
New
Apr 7
First Quarter
Apr 15
Full

Hourly Weather History & Observations

Time (IST) Temp. Heat Index Dew Point Humidity Pressure Visibility Wind Dir Wind Speed Gust Speed Precip Events Conditions
12:00 AM 71.6 °F - 57.2 °F 60% 29.74 in 1.6 mi East 5.8 mph - N/A   Haze
12:30 AM 71.6 °F - 57.2 °F 60% 29.74 in 1.6 mi ESE 9.2 mph - N/A   Haze
1:00 AM 69.8 °F - 57.2 °F 64% 29.71 in 1.6 mi ESE 8.1 mph - N/A   Haze
1:30 AM 71.6 °F - 57.2 °F 60% 29.71 in 1.6 mi East 8.1 mph - N/A   Haze
2:00 AM 69.8 °F - 57.2 °F 64% 29.71 in 1.6 mi ESE 6.9 mph - N/A   Haze
2:30 AM 69.8 °F - 57.2 °F 64% 29.71 in 1.6 mi ESE 6.9 mph - N/A   Haze
3:00 AM 69.8 °F - 57.2 °F 64% 29.71 in 1.6 mi East 4.6 mph - N/A   Haze
3:30 AM 68.0 °F - 57.2 °F 68% 29.71 in 1.6 mi East 3.5 mph - N/A   Haze
4:00 AM 68.0 °F - 57.2 °F 68% 29.71 in 1.6 mi ESE 5.8 mph - N/A   Haze
5:00 AM 66.2 °F - 57.2 °F 73% 29.71 in 1.9 mi ESE 3.5 mph - N/A   Haze
5:30 AM 64.4 °F - 57.2 °F 77% 29.74 in 1.9 mi ESE 4.6 mph - N/A   Partly Cloudy
6:00 AM 64.4 °F - 57.2 °F 77% 29.74 in 1.9 mi East 3.5 mph - N/A   Partly Cloudy
6:30 AM 64.4 °F - 57.2 °F 77% 29.74 in 1.9 mi SE 4.6 mph - N/A   Mist
7:00 AM 66.2 °F - 59.0 °F 78% 29.74 in 1.6 mi ESE 3.5 mph - N/A   Mist
7:30 AM 66.2 °F - 59.0 °F 78% 29.77 in 1.6 mi East 3.5 mph - N/A   Mist
8:00 AM 68.0 °F - 55.4 °F 64% 29.77 in 1.6 mi ESE 3.5 mph - N/A   Haze
8:30 AM 71.6 °F - 55.4 °F 57% 29.80 in 1.7 mi SE 4.6 mph - N/A   Haze
9:30 AM 75.2 °F - 55.4 °F 50% 29.80 in - SSE 5.8 mph - N/A   Haze
10:00 AM 77.0 °F - 55.4 °F 47% 29.80 in 2.2 mi SE 5.8 mph - N/A   Haze
10:30 AM 80.6 °F 80.8 °F 57.2 °F 45% 29.80 in 2.2 mi SW 6.9 mph - N/A   Haze
11:00 AM 82.4 °F 82.0 °F 57.2 °F 42% 29.80 in 2.5 mi South 5.8 mph - N/A   Haze
11:30 AM 84.2 °F 83.5 °F 57.2 °F 40% 29.80 in 2.5 mi SE 4.6 mph - N/A   Haze
12:00 PM 84.2 °F 83.5 °F 57.2 °F 40% 29.80 in 2.8 mi ESE 4.6 mph - N/A   Haze
1:00 PM 86.0 °F 84.2 °F 53.6 °F 33% 29.77 in 2.8 mi SSW 4.6 mph - N/A   Haze
1:30 PM 86.0 °F 84.2 °F 53.6 °F 33% 29.77 in 2.8 mi ESE 5.8 mph - N/A   Haze
2:00 PM 87.8 °F 85.7 °F 53.6 °F 31% 29.74 in 2.8 mi East 6.9 mph - N/A   Haze
2:30 PM 87.8 °F 85.7 °F 53.6 °F 31% 29.74 in 2.8 mi East 8.1 mph - N/A   Haze
3:00 PM 87.8 °F 86.1 °F 55.4 °F 33% 29.74 in 2.8 mi East 8.1 mph - N/A   Haze
3:30 PM 87.8 °F 86.1 °F 55.4 °F 33% 29.71 in 2.5 mi East 9.2 mph - N/A   Haze
4:00 PM 87.8 °F 86.1 °F 55.4 °F 33% 29.71 in 2.8 mi East 9.2 mph - N/A   Haze
4:30 PM 86.0 °F 84.5 °F 55.4 °F 35% 29.71 in 2.2 mi East 6.9 mph - N/A   Haze
5:00 PM 86.0 °F 84.2 °F 53.6 °F 33% 29.71 in 2.2 mi East 5.8 mph - N/A   Haze
5:30 PM 86.0 °F 84.5 °F 55.4 °F 35% 29.71 in 2.2 mi ESE 4.6 mph - N/A   Haze
6:00 PM 84.2 °F 83.0 °F 55.4 °F 37% 29.71 in 2.2 mi ESE 4.6 mph - N/A   Haze
6:30 PM 82.4 °F 82.0 °F 57.2 °F 42% 29.74 in - SE 5.8 mph - N/A   Haze
7:30 PM 77.0 °F - 59.0 °F 54% 29.74 in 1.9 mi SE 3.5 mph - N/A   Haze
8:00 PM 75.2 °F - 59.0 °F 57% 29.74 in 1.6 mi East 3.5 mph - N/A   Haze
8:30 PM 75.2 °F - 59.0 °F 57% 29.77 in 1.6 mi East 3.5 mph - N/A   Haze
9:00 PM 75.2 °F - 59.0 °F 57% 29.77 in 1.6 mi East 3.5 mph - N/A   Haze
9:30 PM 75.2 °F - 60.8 °F 61% 29.80 in 1.6 mi Calm Calm - N/A   Haze
10:00 PM 73.4 °F - 60.8 °F 65% 29.80 in 1.4 mi Calm Calm - N/A   Smoke
10:30 PM 73.4 °F - 59.0 °F 61% 29.80 in 1.4 mi Calm Calm - N/A   Smoke
11:00 PM 73.4 °F - 60.8 °F 65% 29.80 in 1.4 mi Calm Calm - N/A   Smoke
11:30 PM 73.4 °F - 60.8 °F 65% 29.80 in 1.4 mi Calm Calm - N/A   Smoke